Terug naar catalogus

STARLINK-2453

ActiefCommunicatieVLEO
NORAD 47845·PAYLOAD·🇺🇸 United States

Gelanceerd Mar 11, 2021 vanaf Cape Canaveral Space Force Station

Loading…

Volgende Passages (komende 24 uur)

TLE

VersSource: CelesTrak SupGP

Epoch: Sep 15, 2026, 01:40 UTC

1 47845C 21018BL  26258.06993056  .00025144  00000+0  80850-3 0  2588
2 47845  53.1576  97.2927 0001260  84.8140 214.5794 15.31692049    10

Volg STARLINK-2453 in realtime met AllMySat

Download on the App Store